Location,LocationNum,Date,Time,C 0.3-0.5um,C 0.5-0.7um,C 0.7-1.0um,C 1.0-2.0um,C 2.0-5.0um,C >5.0um,Temperature,Humidity,Flags,Liters
Label 1   ,1,03/10/10,18:21:15,251245,32157,6341,3410,1311,167,17,66,0,2.832
Label 1   ,2,03/10/10,18:23:15,257562,33232,6446,3158,821,53,16,66,0,2.832
Label 1   ,3,03/10/10,18:25:15,272264,41258,8322,3946,811,47,15,67,0,2.832
Label 1   ,4,03/10/10,18:27:16,277157,45352,9372,4474,882,47,15,67,0,2.832
Label 1   ,5,03/10/10,18:29:16,290437,56315,12197,5505,934,53,15,68,0,2.832
Label 1   ,6,03/10/10,18:31:16,297536,60016,12797,5805,918,55,15,70,0,2.832
Label 1   ,7,03/10/10,18:33:16,298694,59939,12879,5964,931,47,15,69,0,2.832
Label 1   ,8,03/10/10,18:35:16,288729,52041,10972,5154,800,42,16,69,0,2.832
Label 1   ,9,03/10/10,18:37:16,301017,65546,14440,6558,988,57,15,70,0,2.832
Label 1   ,10,03/10/10,18:39:16,301285,66898,14594,6693,1081,86,15,70,0,2.832
Label 1   ,11,03/10/10,18:41:16,299058,63694,13904,6305,1137,90,15,71,0,2.832
Label 1   ,12,03/10/10,18:43:16,301045,59667,12427,5700,997,70,15,72,0,2.832
Label 1   ,13,03/10/10,18:45:17,288194,52248,11133,5103,889,43,16,71,0,2.832
Label 1   ,14,03/10/10,18:47:17,281992,45410,9237,4344,784,41,16,71,0,2.832
Label 1   ,15,03/10/10,18:49:17,258080,31902,6092,3036,711,34,17,71,0,2.832
Label 1   ,16,03/10/10,18:51:17,271199,36309,6939,3343,761,45,16,72,0,2.832
Label 1   ,17,03/10/10,18:53:17,263913,34146,6556,3115,642,32,16,71,0,2.832
Label 1   ,18,03/10/10,18:55:17,258372,31308,5695,2644,648,33,16,71,0,2.832
Label 1   ,19,03/10/10,18:57:17,261378,32842,5870,2648,641,30,15,72,0,2.832
Label 1   ,20,03/10/10,18:59:17,260522,32553,5931,2738,707,41,14,72,0,2.832
Label 1   ,21,03/10/10,19:01:17,261609,33180,5863,2691,658,34,15,72,0,2.832
Label 1   ,22,03/10/10,19:03:18,259063,32096,5613,2539,614,27,14,73,0,2.832
Label 1   ,23,03/10/10,19:05:18,256738,30772,5384,2445,674,31,15,73,0,2.832
Label 1   ,24,03/10/10,19:07:18,247832,27188,4744,2271,555,24,16,73,0,2.832
Label 1   ,25,03/10/10,19:09:18,243998,25483,4379,2068,556,25,16,73,0,2.832
Label 1   ,26,03/10/10,19:11:18,245576,26066,4454,2072,566,25,16,73,0,2.832
Label 1   ,27,03/10/10,19:13:18,253408,29547,5004,2354,596,30,15,73,0,2.832
Label 1   ,28,03/10/10,19:15:18,243545,26975,4586,2111,563,24,16,73,0,2.832
Label 1   ,29,03/10/10,19:17:18,229478,21939,3724,1873,541,18,16,73,0,2.832
Label 1   ,30,03/10/10,19:19:18,218068,19302,3233,1612,508,15,16,73,0,2.832
Label 1   ,31,03/10/10,19:21:19,215562,18440,2931,1439,500,18,16,74,0,2.832
Label 1   ,32,03/10/10,19:23:19,216780,18354,2866,1453,494,22,16,75,0,2.832
Label 1   ,33,03/10/10,19:25:19,216018,18070,2824,1418,511,24,17,75,0,2.832
Label 1   ,34,03/10/10,19:27:19,223978,20694,3227,1508,506,17,16,74,0,2.832
Label 1   ,35,03/10/10,19:29:19,218673,19563,3091,1500,512,17,16,74,0,2.832
Label 1   ,36,03/10/10,19:31:19,200246,16109,2622,1417,479,18,17,74,0,2.832
Label 1   ,37,03/10/10,19:33:19,200386,15991,2597,1348,445,14,16,74,0,2.832
Label 1   ,38,03/10/10,19:35:19,197186,15626,2493,1327,446,19,16,74,0,2.832
Label 1   ,39,03/10/10,19:37:19,198911,16178,2535,1311,434,11,16,74,0,2.832
Label 1   ,40,03/10/10,19:39:20,201594,16304,2561,1326,457,17,16,74,0,2.832
Label 1   ,41,03/10/10,19:41:20,212325,18751,2973,1448,492,17,15,74,0,2.832
Label 1   ,42,03/10/10,19:43:20,215724,19602,3105,1486,485,17,15,74,0,2.832
Label 1   ,43,03/10/10,19:45:20,218395,21289,3386,1588,504,18,15,74,0,2.832
Label 1   ,44,03/10/10,19:47:20,214768,20382,3250,1529,514,18,15,74,0,2.832
Label 1   ,45,03/10/10,19:49:20,208850,18718,2996,1425,462,14,15,74,0,2.832
Label 1   ,46,03/10/10,19:51:20,208717,18945,2970,1419,458,17,15,74,0,2.832
Label 1   ,47,03/10/10,19:53:20,212215,19955,3197,1460,444,14,15,74,0,2.832
Label 1   ,48,03/10/10,19:55:20,220544,23828,3813,1655,521,22,14,74,0,2.832
Label 1   ,49,03/10/10,19:57:21,219524,21953,3469,1634,510,17,14,74,0,2.832
Label 1   ,50,03/10/10,19:59:21,222374,22388,3498,1654,553,27,15,75,0,2.832
Label 1   ,51,03/10/10,20:01:21,219704,21515,3499,1538,512,19,15,75,0,2.832
Label 1   ,52,03/10/10,20:03:21,217894,20360,3237,1556,538,16,15,75,0,2.832
Label 1   ,53,03/10/10,20:05:21,205394,16961,2669,1384,476,19,16,75,0,2.832
Label 1   ,54,03/10/10,20:07:21,199726,15922,2550,1324,466,16,16,75,0,2.832
Label 1   ,55,03/10/10,20:09:21,212453,19514,3041,1504,482,17,15,75,0,2.832
Label 1   ,56,03/10/10,20:11:21,213440,19575,3186,1489,503,21,15,75,0,2.832
Label 1   ,57,03/10/10,20:13:21,209055,18338,2858,1392,456,17,15,75,0,2.832
Label 1   ,58,03/10/10,20:15:22,197683,15481,2511,1280,440,13,16,74,0,2.832
Label 1   ,59,03/10/10,20:17:22,203476,17436,2616,1252,409,11,15,75,0,2.832
Label 1   ,60,03/10/10,20:19:22,203146,16596,2640,1324,435,12,15,75,0,2.832
Label 1   ,61,03/10/10,20:21:22,188464,14037,2287,1128,387,11,16,74,0,2.832
Label 1   ,62,03/10/10,20:23:22,189547,14214,2347,1243,426,11,16,74,0,2.832
Label 1   ,63,03/10/10,20:25:22,188958,13998,2282,1179,391,11,16,74,0,2.832
Label 1   ,64,03/10/10,20:27:22,187877,14094,2296,1249,416,10,16,74,0,2.832
Label 1   ,65,03/10/10,20:29:22,204392,18458,2886,1322,455,17,14,74,0,2.832
Label 1   ,66,03/10/10,20:31:22,203331,17998,2841,1353,471,24,15,74,0,2.832
Label 1   ,67,03/10/10,20:33:23,205311,18450,2833,1329,457,14,15,74,0,2.832
Label 1   ,68,03/10/10,20:35:23,201326,16667,2601,1291,485,22,15,75,0,2.832
Label 1   ,69,03/10/10,20:37:23,203779,18239,2786,1330,455,17,14,74,0,2.832
Label 1   ,70,03/10/10,20:39:23,191348,14574,2421,1229,421,18,16,74,0,2.832
Label 1   ,71,03/10/10,20:41:23,186962,13938,2259,1143,397,17,16,74,0,2.832
Label 1   ,72,03/10/10,20:43:23,198606,16765,2614,1250,475,22,15,74,0,2.832
Label 1   ,73,03/10/10,20:45:23,200884,17273,2669,1312,481,28,15,75,0,2.832
Label 1   ,74,03/10/10,20:47:23,208835,19784,3001,1425,516,25,14,75,0,2.832
Label 1   ,75,03/10/10,20:49:23,212422,21883,3463,1480,533,30,14,75,0,2.832
Label 1   ,76,03/10/10,20:51:24,213781,22044,3332,1490,560,52,14,74,0,2.832
Label 1   ,77,03/10/10,20:53:24,192025,15246,2363,1157,508,40,15,74,0,2.832
Label 1   ,78,03/10/10,20:55:24,199741,16275,2541,1333,606,67,15,74,0,2.832
Label 1   ,79,03/10/10,20:57:24,208417,19480,3048,1423,550,25,14,74,0,2.832
Label 1   ,80,03/10/10,20:59:24,203905,16999,2654,1345,515,22,15,75,0,2.832
Label 1   ,81,03/10/10,21:01:24,190235,14885,2277,1158,417,19,15,75,0,2.832
Label 1   ,82,03/10/10,21:03:24,193685,16539,2586,1231,431,19,15,75,0,2.832
Label 1   ,83,03/10/10,21:05:24,199190,16215,2517,1289,487,24,15,75,0,2.832
Label 1   ,84,03/10/10,21:07:24,203510,18885,2986,1332,479,14,14,75,0,2.832
Label 1   ,85,03/10/10,21:09:25,205255,20005,3142,1370,468,17,14,75,0,2.832
Label 1   ,86,03/10/10,21:11:25,200349,17944,2721,1310,448,14,14,75,0,2.832
Label 1   ,87,03/10/10,21:13:25,205567,21086,3313,1446,487,24,13,75,0,2.832
Label 1   ,88,03/10/10,21:15:25,203250,18056,2758,1353,470,13,14,75,0,2.832
Label 1   ,89,03/10/10,21:17:25,200926,18048,2723,1283,487,23,15,75,0,2.832
Label 1   ,90,03/10/10,21:19:25,179439,12870,2026,1010,377,17,15,74,0,2.832
Label 1   ,91,03/10/10,21:21:25,196189,15676,2359,1206,428,14,14,75,0,2.832
Label 1   ,92,03/10/10,21:23:25,190232,14298,2182,1127,411,15,15,75,0,2.832
Label 1   ,93,03/10/10,21:25:26,191718,14517,2304,1171,434,16,15,75,0,2.832
Label 1   ,94,03/10/10,21:27:26,200146,17514,2627,1206,459,15,14,76,0,2.832
Label 1   ,95,03/10/10,21:29:26,192682,15698,2476,1225,473,14,14,75,0,2.832
Label 1   ,96,03/10/10,21:31:26,193429,15292,2451,1244,499,22,15,75,0,2.832
Label 1   ,97,03/10/10,21:33:26,192556,15457,2457,1283,525,26,15,76,0,2.832
Label 1   ,98,03/10/10,21:35:26,186512,14272,2277,1240,475,22,15,76,0,2.832
Label 1   ,99,03/10/10,21:37:26,179885,13039,2046,1153,464,18,15,75,0,2.832
Label 1   ,100,03/10/10,21:39:26,173903,12227,1972,1130,461,13,16,75,0,2.832
Label 1   ,101,03/10/10,21:41:26,172995,12000,1949,1088,425,17,16,75,0,2.832
Label 1   ,102,03/10/10,21:43:27,177593,13042,2075,1134,433,19,15,75,0,2.832
Label 1   ,103,03/10/10,21:45:27,177659,13354,2085,1140,428,14,15,75,0,2.832
Label 1   ,104,03/10/10,21:47:27,174211,12435,1910,1114,408,16,15,75,0,2.832
Label 1   ,105,03/10/10,21:49:27,165570,11350,1811,922,363,16,15,74,0,2.832
Label 1   ,106,03/10/10,21:51:27,176899,13422,2026,1068,405,14,15,75,0,2.832
Label 1   ,107,03/10/10,21:53:27,180382,14392,2149,1123,420,13,15,75,0,2.832
Label 1   ,108,03/10/10,21:55:27,186630,15994,2418,1175,462,14,14,75,0,2.832
Label 1   ,109,03/10/10,21:57:27,190011,17039,2626,1201,487,18,14,75,0,2.832
Label 1   ,110,03/10/10,21:59:28,187699,16213,2398,1176,475,21,14,74,0,2.832
Label 1   ,111,03/10/10,22:01:28,196110,19448,2976,1353,507,17,13,75,0,2.832
Label 1   ,112,03/10/10,22:03:28,198171,19848,2974,1367,497,22,13,75,0,2.832
Label 1   ,113,03/10/10,22:05:28,205201,23468,3693,1560,553,27,13,75,0,2.832
Label 1   ,114,03/10/10,22:07:28,183947,14913,2205,1103,418,19,14,74,0,2.832
Label 1   ,115,03/10/10,22:09:28,201642,20800,3293,1434,563,31,13,75,0,2.832
Label 1   ,116,03/10/10,22:11:28,194481,17342,2669,1281,529,23,14,75,0,2.832
Label 1   ,117,03/10/10,22:13:28,183425,15061,2299,1156,483,16,14,75,0,2.832
Label 1   ,118,03/10/10,22:15:28,169936,13031,1988,1053,462,19,15,76,0,2.832
Label 1   ,119,03/10/10,22:17:29,169381,12328,2022,1089,420,16,16,76,0,2.832
Label 1   ,120,03/10/10,22:19:29,174893,13239,2114,1127,444,17,16,76,0,2.832
Label 1   ,121,03/10/10,22:21:29,178835,13957,2188,1124,470,14,16,76,0,2.832
Label 1   ,122,03/10/10,22:23:29,169675,12716,2032,1088,434,16,15,76,0,2.832
Label 1   ,123,03/10/10,22:25:29,172745,13431,2106,1131,457,18,15,76,0,2.832
Label 1   ,124,03/10/10,22:27:29,172581,14251,2208,1128,480,22,14,76,0,2.832
Label 1   ,125,03/10/10,22:29:29,187025,17048,2652,1217,533,24,14,76,0,2.832
Label 1   ,126,03/10/10,22:31:29,185195,15864,2448,1190,482,23,14,76,0,2.832
Label 1   ,127,03/10/10,22:33:30,181522,14608,2246,1171,494,16,14,76,0,2.832
Label 1   ,128,03/10/10,22:35:30,178027,13624,2172,1143,492,20,14,76,0,2.832
Label 1   ,129,03/10/10,22:37:30,173934,13144,2042,1093,482,20,14,76,0,2.832
Label 1   ,130,03/10/10,22:39:30,176075,13874,2187,1109,486,14,15,76,0,2.832
Label 1   ,131,03/10/10,22:41:30,169530,12659,1972,1139,468,17,14,76,0,2.832
Label 1   ,132,03/10/10,22:43:30,157270,10536,1728,1006,438,20,15,76,0,2.832
Label 1   ,133,03/10/10,22:45:30,165090,12084,1935,1022,479,20,15,76,0,2.832
Label 1   ,134,03/10/10,22:47:30,176097,15043,2317,1147,485,18,13,76,0,2.832
Label 1   ,135,03/10/10,22:49:30,170602,12838,1982,1060,456,23,14,76,0,2.832
Label 1   ,136,03/10/10,22:51:31,166665,12354,1963,999,422,26,15,75,0,2.832
Label 1   ,137,03/10/10,22:53:31,162583,11427,1800,1020,424,12,15,76,0,2.832
Label 1   ,138,03/10/10,22:55:31,164566,12168,1936,1012,427,14,14,76,0,2.832
Label 1   ,139,03/10/10,22:57:31,161139,11886,1866,996,417,12,14,76,0,2.832
Label 1   ,140,03/10/10,22:59:31,154616,10472,1676,944,367,9.9,15,75,0,2.832
Label 1   ,141,03/10/10,23:01:31,142937,9127,1543,905,360,9.9,16,75,0,2.832
Label 1   ,142,03/10/10,23:03:31,144150,9320,1610,894,341,11,16,76,0,2.832
Label 1   ,143,03/10/10,23:05:31,147223,9774,1629,915,345,6.0,16,76,0,2.832
Label 1   ,144,03/10/10,23:07:31,147689,9882,1662,933,376,9.2,16,76,0,2.832
Label 1   ,145,03/10/10,23:09:32,145047,9536,1576,893,333,5.7,16,76,0,2.832
Label 1   ,146,03/10/10,23:11:32,145524,9578,1646,877,326,8.8,16,76,0,2.832
Label 1   ,147,03/10/10,23:13:32,147756,9948,1642,910,370,6.4,16,76,0,2.832
Label 1   ,148,03/10/10,23:15:32,150439,10467,1650,895,370,16,16,77,0,2.832
Label 1   ,149,03/10/10,23:17:32,151982,10612,1733,922,380,14,15,76,0,2.832
Label 1   ,150,03/10/10,23:19:32,152392,10498,1714,940,355,12,15,76,0,2.832
Label 1   ,151,03/10/10,23:21:32,148674,9667,1568,950,363,9.9,15,76,0,2.832
Label 1   ,152,03/10/10,23:23:32,148400,9839,1627,888,368,9.9,16,76,0,2.832
Label 1   ,153,03/10/10,23:25:32,147763,9959,1563,893,367,7.8,15,76,0,2.832
Label 1   ,154,03/10/10,23:27:33,149976,10610,1733,977,368,8.8,14,76,0,2.832
Label 1   ,155,03/10/10,23:29:33,152754,11004,1713,909,355,11,15,76,0,2.832
Label 1   ,156,03/10/10,23:31:33,158972,12246,1876,996,378,11,14,76,0,2.832
Label 1   ,157,03/10/10,23:33:33,147420,9804,1584,891,371,12,16,75,0,2.832
Label 1   ,158,03/10/10,23:35:33,151707,11394,1780,880,341,9.9,13,75,0,2.832
Label 1   ,159,03/10/10,23:37:33,157508,12317,1913,913,396,12,13,75,0,2.832
Label 1   ,160,03/10/10,23:39:33,160672,12970,1996,945,384,12,13,75,0,2.832
Label 1   ,161,03/10/10,23:41:33,154771,11316,1753,904,356,13,14,75,0,2.832
Label 1   ,162,03/10/10,23:43:33,156841,11774,1780,908,363,12,13,75,0,2.832
Label 1   ,163,03/10/10,23:45:34,164882,13681,2131,1058,445,18,13,75,0,2.832
Label 1   ,164,03/10/10,23:47:34,167208,13865,2138,983,458,14,13,75,0,2.832
Label 1   ,165,03/10/10,23:49:34,169099,15194,2388,1125,454,18,12,75,0,2.832
Label 1   ,166,03/10/10,23:51:34,169434,13800,2146,1082,449,13,13,76,0,2.832
Label 1   ,167,03/10/10,23:53:34,176318,16138,2476,1148,480,14,13,76,0,2.832
Label 1   ,168,03/10/10,23:55:34,171087,14841,2269,1093,421,11,13,76,0,2.832
Label 1   ,169,03/10/10,23:57:34,151455,10435,1658,895,365,9.2,15,76,0,2.832
Label 1   ,170,03/10/10,23:59:34,140531,9110,1498,862,339,7.1,15,76,0,2.832
Label 1   ,171,03/10/11,00:01:34,141990,9374,1513,864,340,6.7,15,76,0,2.832
Label 1   ,172,03/10/11,00:03:35,159434,12474,1893,974,398,16,13,75,0,2.832
Label 1   ,173,03/10/11,00:05:35,155605,11314,1790,969,399,14,14,76,0,2.832
Label 1   ,174,03/10/11,00:07:35,151059,10694,1728,976,394,12,14,76,0,2.832
Label 1   ,175,03/10/11,00:09:35,144293,9707,1603,903,380,7.1,15,76,0,2.832
Label 1   ,176,03/10/11,00:11:35,137827,8951,1561,866,369,8.5,16,76,0,2.832
Label 1   ,177,03/10/11,00:13:35,128709,7871,1342,803,317,7.4,16,75,0,2.832
Label 1   ,178,03/10/11,00:15:35,126264,7807,1384,810,314,6.0,16,75,0,2.832
Label 1   ,179,03/10/11,00:17:35,127531,7996,1426,815,343,9.5,16,75,0,2.832
Label 1   ,180,03/10/11,00:19:36,127161,7920,1398,807,329,6.0,16,75,0,2.832
Label 1   ,181,03/10/11,00:21:36,127995,8142,1390,801,323,7.1,16,74,0,2.832
Label 1   ,182,03/10/11,00:23:36,133811,8833,1437,804,326,6.7,14,75,0,2.832
Label 1   ,183,03/10/11,00:25:36,136709,9068,1489,839,329,9.5,14,75,0,2.832
Label 1   ,184,03/10/11,00:27:36,146704,11078,1744,845,363,11,14,75,0,2.832
Label 1   ,185,03/10/11,00:29:36,141939,9708,1541,833,346,8.5,14,74,0,2.832
Label 1   ,186,03/10/11,00:31:36,142857,9844,1572,802,344,8.5,14,74,0,2.832
Label 1   ,187,03/10/11,00:33:36,148603,10835,1732,880,356,12,14,74,0,2.832
Label 1   ,188,03/10/11,00:35:36,152862,11514,1841,887,412,12,13,75,0,2.832
Label 1   ,189,03/10/11,00:37:37,150743,10898,1790,923,427,13,14,75,0,2.832
Label 1   ,190,03/10/11,00:39:37,133612,8664,1442,877,342,7.1,15,75,0,2.832
Label 1   ,191,03/10/11,00:41:37,129887,8456,1417,829,335,8.8,15,75,0,2.832
Label 1   ,192,03/10/11,00:43:37,133953,8914,1484,796,346,14,15,76,0,2.832
Label 1   ,193,03/10/11,00:45:37,148121,11262,1719,924,386,17,13,75,0,2.832
Label 1   ,194,03/10/11,00:47:37,138974,9445,1515,845,352,9.2,15,75,0,2.832
Label 1   ,195,03/10/11,00:49:37,139295,9457,1535,847,347,8.5,15,75,0,2.832
Label 1   ,196,03/10/11,00:51:37,134964,8945,1538,815,332,7.8,15,75,0,2.832
Label 1   ,197,03/10/11,00:53:37,132448,8763,1528,871,334,8.5,15,75,0,2.832
Label 1   ,198,03/10/11,00:55:38,138437,9711,1580,890,380,13,15,75,0,2.832
Label 1   ,199,03/10/11,00:57:38,140829,9817,1597,869,390,11,14,75,0,2.832
Label 1   ,200,03/10/11,00:59:38,132354,8876,1485,816,336,9.5,15,75,0,2.832
Label 1   ,201,03/10/11,01:01:38,128883,8405,1454,823,357,10,15,75,0,2.832
Label 1   ,202,03/10/11,01:03:38,125630,8054,1472,824,350,8.8,15,75,0,2.832
Label 1   ,203,03/10/11,01:05:38,133043,9019,1414,826,346,13,14,75,0,2.832
Label 1   ,204,03/10/11,01:07:38,134830,8979,1536,851,354,5.7,15,75,0,2.832
Label 1   ,205,03/10/11,01:09:38,138111,9324,1509,871,343,12,14,75,0,2.832
Label 1   ,206,03/10/11,01:11:39,142896,10110,1622,838,364,13,13,75,0,2.832
Label 1   ,207,03/10/11,01:13:39,139212,9546,1549,863,343,12,14,75,0,2.832
Label 1   ,208,03/10/11,01:15:39,139524,9304,1571,868,359,10,14,76,0,2.832
Label 1   ,209,03/10/11,01:17:39,139928,9724,1573,869,322,10,14,75,0,2.832
Label 1   ,210,03/10/11,01:19:39,130842,8447,1376,817,314,8.8,15,75,0,2.832
Label 1   ,211,03/10/11,01:21:39,133204,8747,1483,820,321,8.1,15,75,0,2.832
Label 1   ,212,03/10/11,01:23:39,137155,9385,1523,879,327,11,14,75,0,2.832
Label 1   ,213,03/10/11,01:25:39,147359,11153,1745,858,372,13,13,75,0,2.832
Label 1   ,214,03/10/11,01:27:39,147604,11283,1804,894,376,11,13,75,0,2.832
Label 1   ,215,03/10/11,01:29:40,152439,12193,1897,962,370,9.2,12,75,0,2.832
Label 1   ,216,03/10/11,01:31:40,155581,13537,2137,989,387,16,12,74,0,2.832
Label 1   ,217,03/10/11,01:33:40,152295,14213,2310,1030,398,14,12,74,0,2.832
Label 1   ,218,03/10/11,01:35:40,147845,11987,1914,897,361,7.4,13,74,0,2.832
Label 1   ,219,03/10/11,01:37:40,155609,12446,1972,964,424,13,13,75,0,2.832
Label 1   ,220,03/10/11,01:39:40,162847,14160,2235,1081,450,20,12,75,0,2.832
Label 1   ,221,03/10/11,01:41:40,167333,15270,2398,1128,459,17,12,75,0,2.832
Label 1   ,222,03/10/11,01:43:40,152094,11334,1796,971,380,7.8,13,76,0,2.832
Label 1   ,223,03/10/11,01:45:40,151629,11165,1777,947,352,9.5,13,76,0,2.832
Label 1   ,224,03/10/11,01:47:41,152507,11256,1816,939,366,11,14,76,0,2.832
Label 1   ,225,03/10/11,01:49:41,149063,11247,1744,881,322,11,13,75,0,2.832
Label 1   ,226,03/10/11,01:51:41,157427,13445,2199,1017,395,14,12,75,0,2.832
Label 1   ,227,03/10/11,01:53:41,160810,13309,2141,1006,415,12,13,75,0,2.832
Label 1   ,228,03/10/11,01:55:41,161268,13481,2082,1073,423,16,13,76,0,2.832
Label 1   ,229,03/10/11,01:57:41,163374,13869,2184,1049,419,13,12,76,0,2.832
Label 1   ,230,03/10/11,01:59:41,172936,17903,2909,1286,461,21,12,76,0,2.832
Label 1   ,231,03/10/11,02:01:41,163378,14767,2307,1115,421,12,12,76,0,2.832
Label 1   ,232,03/10/11,02:03:42,165704,15155,2408,1124,440,16,12,76,0,2.832
Label 1   ,233,03/10/11,02:05:42,164959,15318,2539,1107,459,17,12,76,0,2.832
Label 1   ,234,03/10/11,02:07:42,160059,13715,2177,1061,434,13,12,77,0,2.832
Label 1   ,235,03/10/11,02:09:42,142671,9963,1641,902,372,7.1,14,77,0,2.832
Label 1   ,236,03/10/11,02:11:42,145012,10366,1674,917,373,12,14,77,0,2.832
Label 1   ,237,03/10/11,02:13:42,135681,9291,1522,826,355,14,15,77,0,2.832
Label 1   ,238,03/10/11,02:15:42,134654,9089,1554,832,360,12,15,77,0,2.832
Label 1   ,239,03/10/11,02:17:42,131661,8752,1491,840,321,11,15,77,0,2.832
Label 1   ,240,03/10/11,02:19:42,138803,9896,1555,850,368,15,14,77,0,2.832
Label 1   ,241,03/10/11,02:21:43,144302,10777,1749,909,399,13,14,76,0,2.832
Label 1   ,242,03/10/11,02:23:43,152143,11933,1907,957,421,17,13,76,0,2.832
Label 1   ,243,03/10/11,02:25:43,159778,13416,2108,1010,441,14,12,76,0,2.832
Label 1   ,244,03/10/11,02:27:43,159729,13355,2062,996,440,16,13,76,0,2.832
Label 1   ,245,03/10/11,02:29:43,153770,11622,1862,1008,389,11,14,77,0,2.832
Label 1   ,246,03/10/11,02:31:43,158131,12378,1975,1020,400,16,13,77,0,2.832
Label 1   ,247,03/10/11,02:33:43,145252,10279,1723,920,363,12,15,77,0,2.832
Label 1   ,248,03/10/11,02:35:43,153127,11489,1889,915,375,12,14,77,0,2.832
Label 1   ,249,03/10/11,02:37:43,158096,11983,1897,983,370,14,14,77,0,2.832
Label 1   ,250,03/10/11,02:39:44,154127,11320,1829,1018,393,11,14,77,0,2.832
Label 1   ,251,03/10/11,02:41:44,147796,10489,1723,917,371,11,14,76,0,2.832
Label 1   ,252,03/10/11,02:43:44,152392,11301,1821,937,396,11,13,76,0,2.832
Label 1   ,253,03/10/11,02:45:44,151946,11840,1930,1006,413,9.2,13,76,0,2.832
Label 1   ,254,03/10/11,02:47:44,163781,14245,2304,1093,477,26,13,76,0,2.832
Label 1   ,255,03/10/11,02:49:44,163885,14099,2225,1052,426,19,12,76,0,2.832
Label 1   ,256,03/10/11,02:51:44,152527,11504,1832,959,374,13,12,76,0,2.832
Label 1   ,257,03/10/11,02:53:44,159166,12910,2072,1001,395,16,12,75,0,2.832
Label 1   ,258,03/10/11,02:55:45,161107,12914,2057,996,414,13,12,75,0,2.832
Label 1   ,259,03/10/11,02:57:45,157854,12609,1977,971,392,10,12,76,0,2.832
Label 1   ,260,03/10/11,02:59:45,164214,14830,2357,1058,426,15,12,76,0,2.832
Label 1   ,261,03/10/11,03:01:45,164157,14580,2312,1046,414,16,12,75,0,2.832
Label 1   ,262,03/10/11,03:03:45,160321,13814,2233,1046,390,6.7,12,76,0,2.832
Label 1   ,263,03/10/11,03:05:45,162049,14421,2340,1141,434,13,12,76,0,2.832
Label 1   ,264,03/10/11,03:07:45,165482,15389,2473,1122,415,14,11,75,0,2.832
Label 1   ,265,03/10/11,03:09:45,164692,15281,2531,1182,441,19,12,75,0,2.832
Label 1   ,266,03/10/11,03:11:45,165444,14860,2407,1152,450,17,12,75,0,2.832
Label 1   ,267,03/10/11,03:13:46,169029,14880,2387,1175,452,16,12,76,0,2.832
Label 1   ,268,03/10/11,03:15:46,168125,14841,2329,1122,431,13,12,76,0,2.832
Label 1   ,269,03/10/11,03:17:46,157745,13277,2187,1038,403,15,12,75,0,2.832
Label 1   ,270,03/10/11,03:19:46,149204,11025,1787,911,348,10,13,75,0,2.832
Label 1   ,271,03/10/11,03:21:46,153770,12374,2006,1010,386,11,12,75,0,2.832
Label 1   ,272,03/10/11,03:23:46,146421,11048,1844,970,375,10,13,75,0,2.832
Label 1   ,273,03/10/11,03:25:46,165145,16018,2589,1181,425,11,12,76,0,2.832
Label 1   ,274,03/10/11,03:27:46,168384,18126,3032,1378,479,12,11,76,0,2.832
Label 1   ,275,03/10/11,03:29:46,172849,18396,3139,1447,492,19,11,76,0,2.832
Label 1   ,276,03/10/11,03:31:47,168605,16483,2768,1313,468,15,11,75,0,2.832
Label 1   ,277,03/10/11,03:33:47,170583,18381,3178,1405,512,17,10,75,0,2.832
Label 1   ,278,03/10/11,03:35:47,171809,17781,2933,1275,443,13,11,76,0,2.832
Label 1   ,279,03/10/11,03:37:47,165022,15008,2442,1115,395,10,12,77,0,2.832
Label 1   ,280,03/10/11,03:39:47,152578,11873,1925,1002,398,12,13,76,0,2.832
Label 1   ,281,03/10/11,03:41:47,155156,11699,1870,983,379,13,13,77,0,2.832
Label 1   ,282,03/10/11,03:43:47,163478,15090,2416,1081,419,18,12,76,0,2.832
Label 1   ,283,03/10/11,03:45:47,162190,14420,2313,1027,387,9.2,11,76,0,2.832
Label 1   ,284,03/10/11,03:47:48,151569,11457,1842,949,380,12,12,77,0,2.832
Label 1   ,285,03/10/11,03:49:48,157776,13560,2169,1037,366,11,13,77,0,2.832
Label 1   ,286,03/10/11,03:51:48,157850,13381,2113,1020,357,9.9,12,77,0,2.832
Label 1   ,287,03/10/11,03:53:48,164608,15926,2547,1107,423,14,11,76,0,2.832
Label 1   ,288,03/10/11,03:55:48,166193,15637,2543,1153,396,11,11,76,0,2.832
Label 1   ,289,03/10/11,03:57:48,160952,13032,2041,1004,363,9.9,12,77,0,2.832
Label 1   ,290,03/10/11,03:59:48,167999,18394,3240,1339,456,18,11,75,0,2.832
Label 1   ,291,03/10/11,04:01:48,158223,12416,1965,955,360,11,12,76,0,2.832
Label 1   ,292,03/10/11,04:03:49,164693,15512,2517,1112,389,9.9,12,77,0,2.832
Label 1   ,293,03/10/11,04:05:49,160075,13963,2249,1070,397,9.9,12,76,0,2.832
Label 1   ,294,03/10/11,04:07:49,173506,17580,2936,1323,515,23,11,76,0,2.832
Label 1   ,295,03/10/11,04:09:49,173135,17337,2862,1305,530,19,12,76,0,2.832
Label 1   ,296,03/10/11,04:11:49,165850,14510,2411,1226,493,20,12,77,0,2.832
Label 1   ,297,03/10/11,04:13:49,174032,17497,2899,1357,511,20,11,77,0,2.832
Label 1   ,298,03/10/11,04:15:49,151682,11136,1807,989,380,13,14,78,0,2.832
Label 1   ,299,03/10/11,04:17:49,147573,10422,1785,950,361,11,14,78,0,2.832
Label 1   ,300,03/10/11,04:19:50,154391,11837,2012,1111,444,13,14,78,0,2.832
Label 1   ,301,03/10/11,04:21:50,168675,15522,2493,1291,536,24,12,78,0,2.832
Label 1   ,302,03/10/11,04:23:50,167121,14641,2451,1279,478,17,13,78,0,2.832
Label 1   ,303,03/10/11,04:25:50,158174,12433,2143,1108,451,16,13,78,0,2.832
Label 1   ,304,03/10/11,04:27:50,160570,13057,2113,1120,480,16,13,78,0,2.832
Label 1   ,305,03/10/11,04:29:50,154145,11864,1933,1000,426,12,14,78,0,2.832
Label 1   ,306,03/10/11,04:31:50,160866,13195,2121,1095,449,17,13,78,0,2.832
Label 1   ,307,03/10/11,04:33:50,153051,11680,1889,969,392,13,13,79,0,2.832
Label 1   ,308,03/10/11,04:35:50,151337,11459,1818,943,360,14,14,78,0,2.832